| time (UTC) | temp F | wind direction | speed MPH | gust MPH | rain 1hr in | rain 24hr in | rain mn in | humidity % | barometer mb |
| 20260904060012 | 76 | 28 | 0.0 | 0.0 | 0.00 | 0.27 | 0.00 | 91 | 1010.8 |
| 20260904054512 | 76 | 28 | 0.0 | 0.0 | 0.00 | 0.27 | 0.00 | 91 | 1010.9 |
| 20260904053007 | 77 | 28 | 0.0 | 0.0 | 0.00 | 0.27 | 0.00 | 90 | 1010.5 |
| 20260904051514 | 77 | 28 | 0.0 | 0.0 | 0.00 | 0.27 | 0.00 | 90 | 1010.4 |
| 20260904050002 | 77 | 28 | 0.0 | 0.0 | 0.00 | 0.27 | 0.00 | 89 | 1010.9 |
| 20260904044600 | 78 | 28 | 0.0 | 0.0 | 0.00 | 0.27 | 0.00 | 89 | 1010.8 |
| 20260904043115 | 78 | 28 | 0.0 | 0.0 | 0.00 | 0.27 | 0.00 | 88 | 1010.8 |
| 20260904041525 | 79 | 28 | 0.0 | 0.0 | 0.00 | 0.27 | 0.00 | 88 | 1010.8 |
| 20260904040023 | 79 | 28 | 0.0 | 0.0 | 0.00 | 0.27 | 0.27 | 87 | 1011.0 |
| 20260904034526 | 79 | 28 | 0.0 | 0.0 | 0.00 | 0.27 | 0.27 | 86 | 1010.8 |
| 20260904033021 | 79 | 28 | 0.0 | 0.0 | 0.00 | 0.27 | 0.27 | 86 | 1010.8 |
| 20260904031521 | 80 | 28 | 0.0 | 0.0 | 0.00 | 0.27 | 0.27 | 86 | 1010.9 |
| 20260904030120 | 80 | 28 | 0.0 | 0.0 | 0.00 | 0.27 | 0.27 | 85 | 1010.8 |
| 20260904024518 | 81 | 28 | 0.0 | 0.0 | 0.00 | 0.27 | 0.27 | 84 | 1010.7 |
| 20260904023025 | 81 | 28 | 0.0 | 0.0 | 0.00 | 0.27 | 0.27 | 83 | 1010.4 |
| 20260904021524 | 81 | 28 | 0.0 | 0.0 | 0.00 | 0.27 | 0.27 | 82 | 1010.2 |
| 20260904020015 | 82 | 28 | 0.0 | 0.0 | 0.00 | 0.27 | 0.27 | 82 | 1010.0 |
| 20260904014513 | 82 | 28 | 0.0 | 0.0 | 0.00 | 0.27 | 0.27 | 80 | 1009.8 |
| 20260904013013 | 83 | 28 | 0.0 | 0.0 | 0.00 | 0.27 | 0.27 | 79 | 1009.5 |
| 20260904011520 | 84 | 28 | 0.0 | 0.0 | 0.00 | 0.27 | 0.27 | 77 | 1009.2 |
| 20260904010012 | 85 | 28 | 0.0 | 0.0 | 0.00 | 0.27 | 0.27 | 76 | 1009.0 |
| 20260904004513 | 86 | 28 | 0.0 | 0.0 | 0.00 | 0.27 | 0.27 | 73 | 1009.1 |
| 20260904003008 | 87 | 28 | 0.0 | 0.0 | 0.00 | 0.27 | 0.27 | 71 | 1009.0 |
| 20260904001507 | 88 | 28 | 0.0 | 1.0 | 0.00 | 0.27 | 0.27 | 69 | 1009.0 |
| 20260904000018 | 89 | 28 | 0.0 | 1.0 | 0.00 | 0.27 | 0.27 | 67 | 1008.6 |
| 20260903234505 | 90 | 28 | 0.0 | 3.0 | 0.00 | 0.27 | 0.27 | 66 | 1008.7 |
| 20260903233003 | 90 | 28 | 0.0 | 0.0 | 0.00 | 0.27 | 0.27 | 64 | 1008.6 |
| 20260903231502 | 91 | 28 | 0.0 | 2.0 | 0.00 | 0.27 | 0.27 | 64 | 1008.7 |
| 20260903230005 | 91 | 28 | 0.0 | 3.0 | 0.00 | 0.27 | 0.27 | 61 | 1008.9 |
| 20260903224559 | 92 | 28 | 1.0 | 4.0 | 0.00 | 0.27 | 0.27 | 61 | 1008.9 |
| 20260903223057 | 92 | 28 | 0.0 | 4.0 | 0.00 | 0.27 | 0.27 | 61 | 1008.9 |
| 20260903221556 | 92 | 28 | 0.0 | 3.0 | 0.00 | 0.27 | 0.27 | 61 | 1009.0 |
| 20260903220108 | 92 | 28 | 0.0 | 3.0 | 0.00 | 0.27 | 0.27 | 61 | 1009.1 |
| 20260903214557 | 92 | 28 | 0.0 | 2.0 | 0.00 | 0.27 | 0.27 | 62 | 1009.2 |
| 20260903213056 | 92 | 28 | 1.0 | 3.0 | 0.00 | 0.27 | 0.27 | 62 | 1009.3 |
| 20260903211549 | 93 | 28 | 1.0 | 3.0 | 0.00 | 0.27 | 0.27 | 61 | 1009.4 |
| 20260903210051 | 93 | 28 | 0.0 | 3.0 | 0.00 | 0.27 | 0.27 | 61 | 1009.4 |
| 20260903204546 | 93 | 28 | 1.0 | 3.0 | 0.00 | 0.27 | 0.27 | 62 | 1009.6 |
| 20260903203046 | 92 | 28 | 1.0 | 3.0 | 0.00 | 0.27 | 0.27 | 64 | 1009.9 |
| 20260903201543 | 92 | 28 | 0.0 | 3.0 | 0.00 | 0.27 | 0.27 | 65 | 1010.0 |
| 20260903200041 | 92 | 28 | 0.0 | 3.0 | 0.00 | 0.27 | 0.27 | 64 | 1010.4 |
| 20260903194546 | 92 | 28 | 0.0 | 3.0 | 0.00 | 0.27 | 0.27 | 65 | 1010.6 |
| 20260903193033 | 92 | 28 | 1.0 | 4.0 | 0.00 | 0.27 | 0.27 | 67 | 1010.9 |
| 20260903191541 | 91 | 28 | 0.0 | 2.0 | 0.00 | 0.27 | 0.27 | 68 | 1011.0 |
| 20260903190031 | 91 | 28 | 0.0 | 3.0 | 0.00 | 0.27 | 0.27 | 69 | 1011.1 |
| 20260903184528 | 90 | 28 | 0.0 | 3.0 | 0.00 | 0.27 | 0.27 | 73 | 1011.5 |
| 20260903183028 | 87 | 28 | 0.0 | 3.0 | 0.00 | 0.27 | 0.27 | 76 | 1011.9 |
| 20260903181539 | 91 | 28 | 1.0 | 5.0 | 0.00 | 0.27 | 0.27 | 71 | 1011.9 |
| 20260903180027 | 90 | 28 | 0.0 | 3.0 | 0.00 | 0.27 | 0.27 | 70 | 1012.2 |
| 20260903174522 | 89 | 28 | 0.0 | 2.0 | 0.00 | 0.27 | 0.27 | 71 | 1012.2 |
| 20260903173020 | 90 | 28 | 0.0 | 3.0 | 0.00 | 0.27 | 0.27 | 71 | 1012.4 |
| 20260903171528 | 88 | 28 | 0.0 | 2.0 | 0.01 | 0.27 | 0.27 | 77 | 1012.6 |
| 20260903170017 | 87 | 27 | 0.0 | 3.0 | 0.01 | 0.27 | 0.27 | 79 | 1012.6 |
| 20260903164514 | 88 | 28 | 1.0 | 4.0 | 0.01 | 0.27 | 0.27 | 76 | 1012.7 |
| 20260903163013 | 86 | 28 | 0.0 | 2.0 | 0.01 | 0.27 | 0.27 | 80 | 1012.9 |
| 20260903161506 | 85 | 28 | 0.0 | 4.0 | 0.00 | 0.26 | 0.26 | 81 | 1012.9 |
| 20260903160006 | 83 | 27 | 0.0 | 3.0 | 0.00 | 0.26 | 0.26 | 85 | 1012.8 |
| 20260903154602 | 83 | 28 | 0.0 | 3.0 | 0.00 | 0.26 | 0.26 | 86 | 1012.6 |
| 20260903153056 | 80 | 28 | 0.0 | 1.0 | 0.00 | 0.26 | 0.26 | 92 | 1012.5 |
| 20260903151556 | 79 | 28 | 0.0 | 0.0 | 0.00 | 0.26 | 0.26 | 93 | 1012.7 |
| 20260903150114 | 78 | 28 | 0.0 | 1.0 | 0.00 | 0.26 | 0.26 | 93 | 1012.5 |
| 20260903144554 | 78 | 28 | 0.0 | 0.0 | 0.00 | 0.26 | 0.26 | 94 | 1012.5 |
| 20260903143051 | 78 | 28 | 0.0 | 1.0 | 0.00 | 0.26 | 0.26 | 94 | 1012.5 |
| 20260903141555 | 77 | 28 | 0.0 | 2.0 | 0.00 | 0.26 | 0.26 | 95 | 1012.7 |
| 20260903140050 | 76 | 28 | 0.0 | 2.0 | 0.00 | 0.26 | 0.26 | 96 | 1012.7 |
| 20260903134549 | 75 | 28 | 0.0 | 2.0 | 0.00 | 0.26 | 0.26 | 96 | 1012.8 |
| 20260903133044 | 75 | 28 | 0.0 | 2.0 | 0.00 | 0.26 | 0.26 | 96 | 1012.5 |
| 20260903131543 | 75 | 28 | 0.0 | 2.0 | 0.00 | 0.26 | 0.26 | 97 | 1012.5 |
| 20260903130043 | 75 | 28 | 0.0 | 2.0 | 0.00 | 0.26 | 0.26 | 97 | 1012.6 |
| 20260903124544 | 74 | 28 | 0.0 | 2.0 | 0.00 | 0.26 | 0.26 | 97 | 1012.5 |
| 20260903123040 | 74 | 28 | 0.0 | 3.0 | 0.00 | 0.26 | 0.26 | 96 | 1012.5 |
| 20260903121542 | 74 | 28 | 0.0 | 1.0 | 0.00 | 0.26 | 0.26 | 96 | 1012.4 |
| 20260903120042 | 74 | 28 | 0.0 | 2.0 | 0.00 | 0.26 | 0.26 | 97 | 1012.4 |
| 20260903114544 | 75 | 28 | 0.0 | 0.0 | 0.00 | 0.26 | 0.26 | 96 | 1012.5 |
| 20260903113039 | 75 | 28 | 0.0 | 0.0 | 0.00 | 0.26 | 0.26 | 96 | 1012.4 |
| 20260903111536 | 75 | 28 | 0.0 | 0.0 | 0.00 | 0.26 | 0.26 | 96 | 1012.2 |
| 20260903110033 | 75 | 28 | 0.0 | 0.0 | 0.00 | 0.26 | 0.26 | 96 | 1011.8 |
| 20260903104531 | 75 | 28 | 0.0 | 0.0 | 0.01 | 0.26 | 0.26 | 96 | 1011.6 |
| 20260903103134 | 75 | 28 | 0.0 | 0.0 | 0.03 | 0.26 | 0.26 | 96 | 1011.7 |
| 20260903101541 | 75 | 28 | 0.0 | 1.0 | 0.03 | 0.26 | 0.26 | 96 | 1011.7 |
| 20260903100033 | 74 | 28 | 0.0 | 1.0 | 0.03 | 0.26 | 0.26 | 96 | 1011.6 |
| 20260903094527 | 74 | 28 | 0.0 | 2.0 | 0.02 | 0.25 | 0.25 | 96 | 1011.8 |
| 20260903093054 | 74 | 28 | 0.0 | 3.0 | 0.00 | 0.23 | 0.23 | 95 | 1011.9 |
| 20260903091526 | 74 | 28 | 0.0 | 2.0 | 0.01 | 0.23 | 0.23 | 95 | 1011.7 |
| 20260903090015 | 74 | 28 | 0.0 | 2.0 | 0.01 | 0.23 | 0.23 | 95 | 1011.7 |
| 20260903084515 | 74 | 28 | 0.0 | 2.0 | 0.04 | 0.23 | 0.23 | 95 | 1011.3 |
| 20260903083013 | 75 | 28 | 0.0 | 2.0 | 0.09 | 0.23 | 0.23 | 95 | 1011.3 |
| 20260903081524 | 75 | 28 | 0.0 | 2.0 | 0.09 | 0.22 | 0.22 | 95 | 1011.2 |
| 20260903080010 | 76 | 28 | 0.0 | 2.0 | 0.15 | 0.22 | 0.22 | 95 | 1011.1 |
| 20260903074509 | 76 | 28 | 0.0 | 3.0 | 0.21 | 0.21 | 0.21 | 94 | 1011.3 |
| 20260903073008 | 76 | 28 | 1.0 | 3.0 | 0.14 | 0.14 | 0.14 | 94 | 1011.5 |
| 20260903071507 | 76 | 28 | 0.0 | 0.0 | 0.13 | 0.13 | 0.13 | 93 | 1011.7 |
| 20260903070008 | 77 | 28 | 1.0 | 5.0 | 0.09 | 0.09 | 0.09 | 91 | 1012.0 |
| 20260903064505 | 79 | 28 | 1.0 | 5.0 | 0.01 | 0.01 | 0.01 | 89 | 1011.9 |
| 20260903063000 | 80 | 27 | 0.0 | 8.0 | 0.00 | 0.00 | 0.00 | 84 | 1011.5 |
| 20260903061608 | 80 | 27 | 0.0 | 5.0 | 0.00 | 0.00 | 0.00 | 84 | 1011.5 |